West Palm Beach, FL

9:55 AM EDT on September 21, 2019 (GMT -0400)
Palm Beach International

Weather History for KPBI - July, 2019

Change the Weather History Date:

Tuesday, July 23, 2019

  Actual Average Record
Temperature  
Mean Temperature 85 °F 83 °F  
Max Temperature 94 °F 90 °F 98 °F (1942)
Min Temperature 75 °F 76 °F 68 °F (1921)
Degree Days  
Heating Degree Days 0 0  
Month to date heating degree days 0 0  
Since 1 June heating degree days 0 0  
Since 1 July heating degree days 0 0  
Cooling Degree Days 20 18  
Month to date cooling degree days 456 403  
Year to date cooling degree days 2428 2002  
Since 1 June cooling degree days 1027 893  
Growing Degree Days 34 (Base 50)    
Moisture  
Dew Point 73 °F    
Average Humidity 70    
Maximum Humidity 94    
Minimum Humidity 46    
Precipitation  
Precipitation T in 0.17 in 3.50 in (1920)
Month to date precipitation 0.89 4.34  
Year to date precipitation 29.09 31.35  
Snow  
Snow 0.00 in - - ()
Month to date snowfall 0.0  
Since 1 June snowfall 0.0  
Since 1 July snowfall 0.0  
Snow Depth 0.00 in    
Sea Level Pressure  
Sea Level Pressure 29.98 in    
Wind  
Wind Speed 7 mph (WSW)    
Max Wind Speed 23 mph    
Max Gust Speed 33 mph    
Visibility 10 miles    
Events Thunderstorm    
T = Trace of Precipitation, MM = Missing Value Source: NWS Daily Summary

Daily Weather History Graph

Daily Weather History Graph

Search for Another Location

Airport or City:

Astronomy

Jul. 23, 2019 Rise Set
Actual Time 6:40 AM EDT 8:13 PM EDT
Civil Twilight 6:15 AM EDT 8:38 PM EDT
Nautical Twilight 5:44 AM EDT 9:08 PM EDT
Astronomical Twilight 5:12 AM EDT 9:40 PM EDT
Moon 12:01 AM EDT (7/23) 12:20 PM EDT (7/23)
Length of Visible Light 14h 23m
Length of Day
13h 32m
Waning Gibbous, 63% of the Moon is Illuminated
Jul 23
Waning Gibbous
Jul 24
Last Quarter
Jul 31
New
Aug 7
First Quarter
Aug 15
Full

Hourly Weather History & Observations

Time (EDT) Temp. Heat Index Dew Point Humidity Pressure Visibility Wind Dir Wind Speed Gust Speed Precip Events Conditions
12:53 AM 78.1 °F - 73.9 °F 87% 29.97 in 10.0 mi West 8.1 mph - N/A   Scattered Clouds
1:53 AM 78.1 °F - 73.0 °F 84% 29.98 in 10.0 mi NW 5.8 mph - N/A   Mostly Cloudy
2:30 AM 78.1 °F - 73.0 °F 84% 29.97 in 10.0 mi WNW 4.6 mph - N/A Thunderstorm Thunderstorm
2:53 AM 78.1 °F - 73.0 °F 84% 29.97 in 10.0 mi West 4.6 mph - N/A Thunderstorm Thunderstorm
2:57 AM 78.1 °F - 73.0 °F 84% 29.96 in 10.0 mi WNW 4.6 mph - N/A   Mostly Cloudy
3:53 AM 78.1 °F - 73.0 °F 84% 29.96 in 10.0 mi WNW 5.8 mph - N/A   Mostly Cloudy
4:53 AM 77.0 °F - 73.0 °F 88% 29.96 in 10.0 mi WNW 3.5 mph - N/A   Mostly Cloudy
5:53 AM 75.9 °F - 73.0 °F 91% 29.97 in 10.0 mi West 6.9 mph - N/A   Mostly Cloudy
6:53 AM 75.0 °F - 73.0 °F 94% 29.97 in 10.0 mi WSW 4.6 mph - N/A   Mostly Cloudy
7:53 AM 77.0 °F - 73.9 °F 90% 29.99 in 10.0 mi SSW 4.6 mph - N/A   Scattered Clouds
8:53 AM 81.0 °F 86.7 °F 75.0 °F 82% 30.00 in 10.0 mi SW 6.9 mph - N/A   Scattered Clouds
9:53 AM 84.0 °F 91.2 °F 73.9 °F 72% 30.00 in 10.0 mi SW 6.9 mph - N/A   Scattered Clouds
10:53 AM 87.1 °F 94.5 °F 73.0 °F 63% 30.01 in 10.0 mi SSW 8.1 mph - N/A   Scattered Clouds
11:53 AM 89.1 °F 95.0 °F 71.1 °F 55% 30.00 in 10.0 mi SSW 9.2 mph - N/A   Scattered Clouds
12:53 PM 91.0 °F 96.6 °F 70.0 °F 50% 29.99 in 10.0 mi SW 11.5 mph - N/A   Scattered Clouds
1:53 PM 93.0 °F 99.0 °F 70.0 °F 47% 29.96 in 10.0 mi WSW 13.8 mph 18.4 mph N/A   Scattered Clouds
2:53 PM 93.0 °F 99.0 °F 70.0 °F 47% 29.96 in 10.0 mi Variable 5.8 mph - N/A   Scattered Clouds
3:53 PM 91.0 °F 100.4 °F 73.9 °F 57% 29.94 in 10.0 mi South 15.0 mph - N/A Thunderstorm Thunderstorm
4:53 PM 84.0 °F 89.6 °F 72.0 °F 67% 29.94 in 10.0 mi South 19.6 mph 25.3 mph N/A Thunderstorm Thunderstorm
5:53 PM 77.0 °F - 72.0 °F 84% 29.96 in 10.0 mi West 10.4 mph - 0.00 in Thunderstorm Thunderstorm
6:53 PM 75.9 °F - 72.0 °F 87% 29.97 in 10.0 mi West 3.5 mph - N/A   Scattered Clouds
7:53 PM 75.9 °F - 72.0 °F 87% 29.96 in 10.0 mi SSW 3.5 mph - N/A   Mostly Cloudy
8:53 PM 77.0 °F - 73.0 °F 88% 29.99 in 10.0 mi Calm Calm - N/A   Mostly Cloudy
9:53 PM 79.0 °F - 73.9 °F 84% 29.99 in 10.0 mi Calm Calm - N/A   Mostly Cloudy
10:53 PM 78.1 °F - 73.9 °F 87% 30.00 in 10.0 mi SW 3.5 mph - N/A   Mostly Cloudy
11:53 PM 79.0 °F - 73.0 °F 82% 30.01 in 10.0 mi SSW 4.6 mph - N/A   Mostly Cloudy